Showing default

ZHUHAI-1 03A, 44534

Orbit data source: Space-Track

ZHUHAI-1 03A, 44534 is a payload satellite owned by Zhuhai Orbita (CN) in SSO that was launched on Thu, 19 Sep 2019 UTC via a CHANG ZHENG 11 launch vehicle from the Jiuquan Satellite Launch Center, China (JSC). Payloads include a variety of satellites, spacecraft, and rockets equipped with specific instruments for various scientific and technological missions. These include communications satellites like Starlink; space stations such as the ISS; scientific satellites like the Hubble; Earth observation satellites from companies like Planet Labs, Umbra, and HawkEye 360; GPS; miniature CubeSats for education and research; and military/defense satellites.

Loading next visibility...
ZHUHAI-1 03A details
Identifier
44534, 2019-060A
Orbit
SSO
Last TLE update8 hours ago
Origin
Flag of CNZhuhai Orbita (CN / PRC)
ManufacturerHarbin
MissionOperational Commercial Imaging
Bus & MotorOHS-1, Unknown motor
Mass69 kg wet, ~69 kg dry
Launch date (UTC)
2019-09-19 (5 years ago)
Launch vehicle
CHANG ZHENG 11
Launch site
Jiuquan Satellite Launch Center, China (JSC)
Object type
Payload
Rocket body
Debris
Shape & HBRBox, Unknown HBR
Radar Cross Section0.280 m², Medium (>0.1 m² and < 1m²)

Expand to show TLE details & history

TLE from 8 hours ago
0 ZHUHAI-1 03A
1 44534U 19060A   24361.29002630  .00058376  00000-0  12727-2 0  9994
2 44534  97.5055 132.9353 0010080  60.1847 300.0402 15.43999488293557
Epoch: 2024-12-26T06:57Z
Definitive object data (Epoch: 2024-12-26T06:57:38.272Z)
Latitude0.00001°
Longitude-66.74572°
Altitude434.006 km
Speed7.653 km/s
True Right ascension08h 51m 44s
True Declination0° 00' 00"
Sunlit
Object was in full shadow at TLE epoch
Visualization TLE readout
Latitude54.02612°
Longitude124.01097°
Altitude440.398 km
Speed7.655 km/s
Apparent Right ascension00h 24m 27s
Apparent Declination11° 25' 36"
Sunlit
Object is in daylight
Visualization observer readout
Local Sidereal Time14:38:39
Azimuth38.703° NE
Elevation-29.961°
Doppler factor1
Orbital elements
Apogee altitude438.122 km
Perigee altitude424.394 km
Semi-major axis6,809.395 km
Eccentricity0.001008
Inclination97.5055°
RAAN132.9353°
Arg. of periapsis60.1847°
True anomaly299.94014°
Mean anomaly300.0402°
Eccentric anomaly299.99018°
Mean motion3.86261 °/min
BSTAR0.0012727
Orbital period93.2 mins
Loading maneuver chart data...
Loading historical data...
Loading historical data...
Loading historical data...
Loading historical data...
Loading historical data...
Loading historical data...
Loading historical data...

ZHUHAI-1 03A Visibility forecast

Observer location: undefined°, undefined

Span
Click to sort rows by Start time (UTC) header in descending order
Start Az.
Max El. time (UTC)
Max El. Az.
Max El.
End time (UTC)
End Az.
5 mins2024-12-26 21:31:40.653Z35.204° NE2024-12-26 21:33:40.653Z88.933° E31.977°2024-12-26 21:36:40.653Z168.145° S
4 mins2024-12-27 09:32:40.653Z212.713° SW2024-12-27 09:34:40.653Z279.212° WNW27.075°2024-12-27 09:36:40.653Z322.939° NNW
|